TimeEEST,TemperatureF,Dew PointF,Humidity,Sea Level PressureIn,VisibilityMPH,Wind Direction,Wind SpeedMPH,Gust SpeedMPH,PrecipitationIn,Events,Conditions,WindDirDegrees,DateUTC
12:20 AM,73.4,55.4,53,30.04,-9999.0,East,5.8,-,N/A,,Clear,80,2012-06-30 21:20:00
12:50 AM,71.6,59.0,64,30.04,-9999.0,East,5.8,-,N/A,,Clear,80,2012-06-30 21:50:00
1:20 AM,71.6,57.2,60,30.04,-9999.0,East,6.9,-,N/A,,Clear,100,2012-06-30 22:20:00
1:50 AM,71.6,57.2,60,30.04,-9999.0,NE,5.8,-,N/A,,Clear,50,2012-06-30 22:50:00
2:20 AM,71.6,53.6,53,30.04,-9999.0,ENE,6.9,-,N/A,,Clear,60,2012-06-30 23:20:00
2:50 AM,71.6,53.6,53,30.04,-9999.0,ENE,8.1,-,N/A,,Clear,60,2012-06-30 23:50:00
3:00 AM,71,53,43,30.04,6,ENE,8.1,,,,,60,2012-07-01 00:00:00
3:20 AM,71.6,53.6,53,30.01,-9999.0,NE,8.1,-,N/A,,Clear,50,2012-07-01 00:20:00
3:50 AM,71.6,53.6,53,30.01,-9999.0,NE,9.2,-,N/A,,Clear,50,2012-07-01 00:50:00
4:20 AM,71.6,53.6,53,30.01,-9999.0,NE,9.2,-,N/A,,Clear,50,2012-07-01 01:20:00
4:50 AM,69.8,53.6,56,30.01,-9999.0,NE,9.2,-,N/A,,Clear,50,2012-07-01 01:50:00
5:20 AM,69.8,53.6,56,30.01,-9999.0,ENE,9.2,-,N/A,,Clear,60,2012-07-01 02:20:00
5:50 AM,69.8,55.4,60,30.04,-9999.0,NE,9.2,-,N/A,,Clear,50,2012-07-01 02:50:00
6:20 AM,69.8,55.4,60,30.04,-9999.0,NE,9.2,-,N/A,,Clear,50,2012-07-01 03:20:00
6:50 AM,71.6,55.4,57,30.04,-9999.0,NE,9.2,-,N/A,,Clear,50,2012-07-01 03:50:00
7:20 AM,71.6,53.6,53,30.04,-9999.0,NE,9.2,-,N/A,,Clear,50,2012-07-01 04:20:00
7:50 AM,73.4,53.6,50,30.04,-9999.0,ENE,8.1,-,N/A,,Clear,60,2012-07-01 04:50:00
8:20 AM,75.2,53.6,47,30.04,-9999.0,East,10.4,-,N/A,,Clear,90,2012-07-01 05:20:00
8:50 AM,75.2,53.6,47,30.04,-9999.0,East,11.5,-,N/A,,Clear,90,2012-07-01 05:50:00
9:00 AM,76,54,35,30.05,6,East,11.5,,,,,90,2012-07-01 06:00:00
9:20 AM,77.0,53.6,44,30.04,-9999.0,ENE,11.5,-,N/A,,Clear,70,2012-07-01 06:20:00
9:50 AM,77.0,53.6,44,30.04,6.2,ENE,16.1,-,N/A,,Partly Cloudy,70,2012-07-01 06:50:00
10:20 AM,78.8,53.6,42,30.04,6.2,ENE,16.1,-,N/A,,Partly Cloudy,70,2012-07-01 07:20:00
10:50 AM,77.0,51.8,41,30.04,6.2,ENE,16.1,-,N/A,,Partly Cloudy,60,2012-07-01 07:50:00
11:20 AM,80.6,53.6,39,30.04,6.2,ENE,12.7,-,N/A,,Partly Cloudy,60,2012-07-01 08:20:00
11:50 AM,80.6,50.0,34,30.04,6.2,ENE,16.1,-,N/A,,Partly Cloudy,70,2012-07-01 08:50:00
12:20 PM,82.4,50.0,32,30.04,6.2,ENE,13.8,-,N/A,,Partly Cloudy,60,2012-07-01 09:20:00
12:50 PM,82.4,50.0,32,30.04,6.2,ENE,15.0,-,N/A,,Partly Cloudy,60,2012-07-01 09:50:00
1:20 PM,80.6,46.4,30,30.04,6.2,NE,17.3,-,N/A,,Partly Cloudy,50,2012-07-01 10:20:00
1:50 PM,82.4,50.0,32,30.01,-9999.0,NE,13.8,-,N/A,,Clear,40,2012-07-01 10:50:00
2:20 PM,82.4,48.2,30,30.04,-9999.0,NE,13.8,-,N/A,,Clear,50,2012-07-01 11:20:00
2:50 PM,82.4,50.0,32,30.04,-9999.0,NNE,16.1,-,N/A,,Clear,30,2012-07-01 11:50:00
3:00 PM,82,48,20,30.03,6,NNE,16.1,,,,,30,2012-07-01 12:00:00
3:20 PM,82.4,50.0,32,30.01,-9999.0,NE,16.1,-,N/A,,Clear,40,2012-07-01 12:20:00
3:50 PM,82.4,51.8,35,30.01,-9999.0,NE,17.3,-,N/A,,Clear,40,2012-07-01 12:50:00
4:20 PM,80.6,51.8,37,30.01,-9999.0,NE,18.4,-,N/A,,Clear,40,2012-07-01 13:20:00
4:50 PM,80.6,53.6,39,30.01,-9999.0,NNE,19.6,-,N/A,,Clear,30,2012-07-01 13:50:00
5:20 PM,80.6,53.6,39,30.04,-9999.0,NNE,19.6,-,N/A,,Clear,30,2012-07-01 14:20:00
5:50 PM,80.6,55.4,42,30.01,-9999.0,NNE,18.4,-,N/A,,Clear,30,2012-07-01 14:50:00
6:20 PM,78.8,55.4,44,30.01,-9999.0,NE,19.6,-,N/A,,Clear,40,2012-07-01 15:20:00
6:50 PM,78.8,55.4,44,30.01,-9999.0,NE,17.3,-,N/A,,Clear,50,2012-07-01 15:50:00
7:20 PM,78.8,53.6,42,30.01,-9999.0,ENE,19.6,-,N/A,,Clear,60,2012-07-01 16:20:00
7:50 PM,78.8,55.4,44,30.01,-9999.0,NE,16.1,-,N/A,,Clear,50,2012-07-01 16:50:00
8:20 PM,77.0,55.4,47,30.01,-9999.0,ENE,16.1,29.9,N/A,,Clear,60,2012-07-01 17:20:00
8:50 PM,77.0,57.2,50,30.04,-9999.0,NE,16.1,-,N/A,,Clear,50,2012-07-01 17:50:00
9:00 PM,77,56,37,30.03,6,NE,16.1,,,,,50,2012-07-01 18:00:00
9:20 PM,77.0,55.4,47,30.04,-9999.0,NE,16.1,-,N/A,,Clear,50,2012-07-01 18:20:00
9:50 PM,75.2,57.2,53,30.04,-9999.0,NE,16.1,-,N/A,,Clear,50,2012-07-01 18:50:00
10:20 PM,75.2,57.2,53,30.04,-9999.0,NE,13.8,-,N/A,,Clear,50,2012-07-01 19:20:00
10:50 PM,75.2,59.0,57,30.04,-9999.0,NE,16.1,-,N/A,,Clear,50,2012-07-01 19:50:00
11:20 PM,75.2,59.0,57,30.04,-9999.0,ENE,13.8,-,N/A,,Clear,60,2012-07-01 20:20:00
11:50 PM,75.2,59.0,57,30.04,-9999.0,NE,11.5,-,N/A,,Clear,50,2012-07-01 20:50:00